Regional Weather Roundup
Issued by NWS Wilmington, NC

Home | Current Version | Previous Version | Text Only | Print | Product List | Glossary On
Versions: 1 2 3 4 5 6 7 8 9 10 11 12 13 14 15 16 17 18 19 20 21 22 23 24 25 26 27 28 29 30 31 32 33 34 35 36 37 38 39 40 41 42 43 44 45 46 47 48 49 50
000
ASUS42 KILM 200213
RWRILM
RWRILM
REGIONAL HOURLY WEATHER ROUNDUP
NATIONAL WEATHER SERVICE WILMINGTON NC
1000 PM EDT TUE SEP 19 2017

NOTE: "FAIR" INDICATES FEW OR NO CLOUDS BELOW 12,000 FEET WITH NO
SIGNIFICANT WEATHER AND/OR OBSTRUCTIONS TO VISIBILITY.

...............WFO WILMINGTON COUNTY WARNING AREA...............

......COASTAL NC AND SC COUNTIES......

CITY           SKY/WX    TMP DP  RH WIND       PRES   REMARKS
WILMINGTON     CLEAR     71  68  90 CALM      29.95R
N MYRTLE BEACH CLEAR     72  70  93 CALM      29.96R
MYRTLE BEACH   CLEAR     72  68  87 CALM      29.97S

......INLAND NC AND SC COUNTIES.......

CITY           SKY/WX    TMP DP  RH WIND       PRES   REMARKS
LUMBERTON      CLEAR     67  66  97 CALM      29.95S
ELIZABETHTOWN  NOT AVBL
WHITEVILLE     CLEAR     71  67  88 CALM      29.95S
FLORENCE       CLEAR     72  69  90 CALM      29.97R
DARLINGTON     CLEAR     70  67  90 CALM      29.97S
KINGSTREE      FAIR      68  68 100 CALM      29.97S
HARTSVILLE     FAIR      66  64  94 CALM      29.97S
BENNETTSVILLE  FAIR      70  68  94 CALM      29.96S
CONWAY         FAIR      68  68 100 CALM      29.96S
GEORGETOWN     FAIR      70  68  94 CALM      29.98S
MARION         FAIR      70  66  88 CALM      29.96S

....................REST OF NORTH CAROLINA......................

.........EASTERN NC.........

CITY           SKY/WX    TMP DP  RH WIND       PRES   REMARKS
CAPE HATTERAS  CLOUDY    75  69  81 VRB7      29.90R
JACKSONVILLE   CLEAR     69  68  96 CALM      29.95S
MOREHEAD CITY  CLEAR     72  69  90 CALM      29.93R
KENANSVILLE    CLEAR     68  66  94 CALM      29.95R
NEW BERN       CLEAR     70  68  93 W3        29.94S
ELIZABETH CITY CLOUDY    73  70  90 W8        29.90R

.........CENTRAL NC.........

CITY           SKY/WX    TMP DP  RH WIND       PRES   REMARKS
RALEIGH DURHAM PTCLDY    68  65  90 CALM      29.96S
ROCKY MOUNT    CLEAR     67  67 100 CALM      29.94R
ROANOKE RAPIDS NOT AVBL
FAYETTEVILLE   CLEAR     73  66  78 CALM      29.95S
HOFFMAN        CLEAR     67  64  90 CALM      29.96S

.........WESTERN NC.........

CITY           SKY/WX    TMP DP  RH WIND       PRES   REMARKS
CHARLOTTE      PTCLDY    74  68  81 SW5       29.98S
GREENSBORO     CLEAR     72  66  81 W6        29.98R
HICKORY        NOT AVBL
BOONE          NOT AVBL
ASHEVILLE      NOT AVBL

.....................REST OF SOUTH CAROLINA.....................

.........EASTERN SC.........

CITY           SKY/WX    TMP DP  RH WIND       PRES   REMARKS
CHARLESTON     CLEAR     75  72  90 SW6       29.98R
BEAUFORT MCAS  CLEAR     79  75  87 S3        29.98S
HILTON HEAD    CLEAR     77  73  88 VRB3      29.99S

.........CENTRAL SC.........

CITY           SKY/WX    TMP DP  RH WIND       PRES   REMARKS
COLUMBIA       CLEAR     76  68  76 S3        29.97R
ORANGEBURG     CLEAR     73  70  90 CALM      29.98R
SUMTER SHAW    CLEAR     74  67  78 CALM      29.96R

.........WESTERN SC.........

CITY           SKY/WX    TMP DP  RH WIND       PRES   REMARKS
GREENVILLE     NOT AVBL
ROCK HILL        N/A    N/A N/A N/A MISG      29.99R
ANDERSON       PTCLDY    74  69  85 CALM      29.97S
CLEMSON        NOT AVBL
GREENWOOD      PTCLDY    72  70  93 CALM      29.99S


...................COASTAL AND OFFSHORE REPORTS..................

................LOCAL PIERS AND NC RESERVE................


STATION/POSITION TIME  SKY/WX   TEMP    WIND        PRES    VSBY
                                AIR SEA DIR/SP/G
                 (UTC)          (F)     (DEG/KT/KT) (MB)    (MI)
JOHNY MRCER PIER 0142            78 80  260/  2/  3 1013.2R
NC RESRV MASNBRO 0045            74     300/  1     1015.0
OCEAN CREST PIER NOT AVBL
SPRINGMAID  PIER 0142                               1014.0R


................COASTAL AND OFFSHORE BUOYS................


STATION/POSITION TIME  SKY/WX   TEMP    WIND        PRES    VSBY
                                AIR SEA DIR/SP/G
                 (UTC)          (F)     (DEG/KT/KT) (MB)    (MI)
DIMNDSHOAL 41025 0150            75 74  330/ 17/ 21 1011.9R
WVE H/P(F/S)=  7/11 SWL H/P/D(F/S/D)=  5/ 40/11

CAPE LOOKOUT     0200            75      CALM  /  1 1013.4R
ONSLOW BAY 41036 NOT AVBL
ONSLOW BAY 41064 0108            80     310/  6/ 10 1013.4R
ONSLOW BAY 41159 NOT AVBL
MASNBO INL 41110 0159               78                N/A
WVE H/P(F/S)=  2/13 SWL H/P/D(F/S/D)=  2/ 90/13

WILM HARBR 41108 0200               80                N/A
WVE H/P(F/S)=  2/13 SWL H/P/D(F/S/D)=  2/110/13

27SE WRITB 41037 0108            80 80  230/  6/  8 1013.8R
FRYING PAN 41013 0200            81 82  270/ 10/ 12 1014.1
SUNST NRSH 41024 0108            79 79  300/  2/  4 1014.1R
CAPRS NRSH 41029 0108            77 80  240/ 10/ 12 1014.6R
EDISTO     41004 0150            80 83  250/  4/  8 1014.6R
WVE H/P(F/S)=  4/11 SWL H/P/D(F/S/D)=  5/ 80/11



..........OFFSHORE BUOYS BEYOND 100 NM OFFSHORE...........
.....IN A TRIANGLE---HAT TO BERMUDA TO BAHAMAS TO HAT.....


STATION/POSITION TIME  SKY/WX   TEMP    WIND        PRES    VSBY
                                AIR SEA DIR/SP/G
                 (UTC)          (F)     (DEG/KT/KT) (MB)    (MI)
150E HAT   41001 NOT AVBL
W BERMUDA  41048 0200            79 79  220/ 16/ 17 1014.8
ATLANTIC S 41049 0150            82 83  120/ 14/ 17 1019.5R
WVE H/P(F/S)=  6/10 SWL H/P/D(F/S/D)=  5/180/10

E BAHAMAS  41046 0200            82 85   90/ 12/ 16 1015.9
NE BAHAMAS 41047 0150            82 83  100/  6/  8 1016.3R
WVE H/P(F/S)= 10/11 SWL H/P/D(F/S/D)= 10/11

120E CANVRL41010 0150               84   50/  4/  8 1015.4R
WVE H/P(F/S)=  5/13 SWL H/P/D(F/S/D)=  5/13


END



USA.gov is the U.S. government's official web portal to all federal, state and local government web resources and services.